Regional Weather Roundup
Issued by NWS

Home | Current Version | Previous Version | Text Only | Print | Product List | Glossary On
Versions: 1 2 3 4 5 6 7 8 9 10 11 12 13 14 15 16 17 18 19 20 21 22 23 24 25 26 27 28 29 30 31 32 33 34 35 36 37 38 39 40 41 42 43 44 45 46 47 48 49 50
000
ASUS43 KDTX 291610
RWRMI
MICHIGAN HOURLY REGIONAL WEATHER ROUNDUP
NATIONAL WEATHER SERVICE DETROIT/PONTIAC MI
1200 PM EDT SAT AUG 29 2015

NOTE: "FAIR" INDICATES FEW OR NO CLOUDS BELOW 12,000 FEET WITH NO
SIGNIFICANT WEATHER AND/OR OBSTRUCTION TO VISIBILITY.

MIZ047>049-052>055-059>063-066>070-074>076-081>083-291700-
SOUTHEAST LOWER MICHIGAN

CITY           SKY/WX    TMP DP  RH WIND       PRES   REMARKS
ADRIAN         PTSUNNY   76  62  62 S5        30.13S
ALMA           CLOUDY    64  63  96 SE5       30.13F
ANN ARBOR      PTSUNNY   73  61  65 S7        30.13S
BAD AXE        CLOUDY    64  61  90 CALM      30.14F
DETROIT CITY   PTSUNNY   75  62  64 VRB7      30.14S
DETROIT        PTSUNNY   77  59  53 SE6       30.13F
FLINT          CLOUDY    71  63  75 SE6       30.13S
GROSSE ILE     PTSUNNY   73  64  73 SE6       30.13S
HILLSDALE      CLOUDY    73  64  73 CALM      30.13R
HOWELL         LGT RAIN  69  62  79 S3        30.13S

CITY           SKY/WX    TMP DP  RH WIND       PRES   REMARKS
JACKSON        LGT RAIN  67  64  90 CALM      30.13R
LAMBERTVILLE   PTSUNNY   76  61  59 CALM      30.13S
LANSING        LGT RAIN  65  62  90 S3        30.14R
LAPEER         NOT AVBL
MASON          RAIN      65  61  86 CALM      30.14R
MONROE         PTSUNNY   76  60  56 SE5       30.12S
MT. CLEMENS    PTSUNNY   71  65  81 E6        30.13F
PONTIAC        CLOUDY    71  62  73 SE8       30.13F
PORT HOPE        N/A     65  60  84 E3        30.14R
PORT HURON     CLOUDY    72  64  78 E5        30.15F
TRI CITIES     CLOUDY    66  61  84 S5        30.14R
YPSILANTI      PTSUNNY   78  61  55 S5        30.13F
$$
MIZ043>046-050>051-056>058-064>065-071>073-077>080-291700-
SOUTHWEST LOWER MICHIGAN

CITY           SKY/WX    TMP DP  RH WIND       PRES   REMARKS
BATTLE CREEK   LGT RAIN  65  62  90 SE5       30.12F
BENTON HARBOR  RAIN      65  63  93 NE3       30.07S FOG
BIG RAPIDS     DRIZZLE   63  61  93 S5        30.12S
COLDWATER      LGT RAIN  67  64  89 CALM      30.12S
HOLLAND        CLOUDY    67  63  87 SE6       30.09F
GRAND RAPIDS   LGT RAIN  64  63  96 SE8       30.10F FOG
KALAMAZOO      LGT RAIN  64  62  93 CALM      30.11F FOG
MARSHALL       RAIN      64  62  93 CALM      30.12F
MUSKEGON       CLOUDY    66  62  87 SE9       30.08F
$$
MIZ016>042-291700-
NORTHERN LOWER MICHIGAN

CITY           SKY/WX    TMP DP  RH WIND       PRES   REMARKS
ALPENA         PTSUNNY   66  61  84 SW3       30.13R
BEAVER ISLAND  CLOUDY    67  60  80 SW12      30.09S
BELLAIRE       CLOUDY    65  60  83 SE3       30.12R
CADILLAC       CLOUDY    65  60  81 SE8       30.11F
CHARLEVOIX     CLOUDY    64  62  95 S6        30.13S
FRANKFORT      CLOUDY    66  62  87 SE5       30.10R
GAYLORD        CLOUDY    64  60  87 S3        30.13R
GRAYLING       CLOUDY    62  58  88 CALM      30.14S
HARBOR SPRINGS CLOUDY    64  61  88 SW3       30.11S
HOUGHTON LAKE  CLOUDY    63  58  83 VRB5      30.14S
MANISTEE       PTSUNNY   64  59  82 S5        30.10S
OSCODA         CLOUDY    66  57  74 S5        30.13S
PELLSTON       CLOUDY    66  60  81 SW6       30.11R
TRAVERSE CITY  CLOUDY    66  60  81 E5        30.10R
$$
MIZ007>008-015-291700-
EASTERN UPPER MICHIGAN

CITY           SKY/WX    TMP DP  RH WIND       PRES   REMARKS
KINROSS        CLOUDY    66  61  82 SW8G16    30.09R
MACKINAC ISLAN CLOUDY    65  60  86 SW8       30.09R
NEWBERRY       PTSUNNY   68  59  73 SW16G22   30.07S
S. S. MARIE    CLOUDY    65  60  84 VRB3      30.08R
$$
MIZ004>006-011>014-085-291700-
CENTRAL UPPER MICHIGAN

CITY           SKY/WX    TMP DP  RH WIND       PRES   REMARKS
MANISTIQUE     CLOUDY    65  60  84 S8        30.08S
ESCANABA       CLOUDY    63  57  82 S7        30.07S
MENOMINEE      CLOUDY    64  57  77 S9        30.08R
SAWYER-GWINN   SUNNY     68  57  68 SW12      30.06S
$$
MIZ001>003-009>011-084-291700-
WESTERN UPPER MICHIGAN

CITY           SKY/WX    TMP DP  RH WIND       PRES   REMARKS
IRON MOUNTAIN  PTSUNNY   71  59  65 S8        30.06S
HOUGHTON       PTSUNNY   67  58  72 W13       30.03R
COPPER HARBOR    N/A     71  56  58 NW9G18    30.00S
IRONWOOD       SUNNY     68  59  73 SW6       30.03S
$$

ABBREVIATIONS USED IN REMARKS
   TC - TEMPERATURE IN CELSIUS
  WCI - WIND CHILL INDEX
   HX - HEAT INDEX
  VSB - VISIBILITY




USA.gov is the U.S. government's official web portal to all federal, state and local government web resources and services.